Location: Proctor
(47.8934°N, 114.3048°W)
Time: 11:09:26
(UTC+00:00)

Courier 1B Rocket - Pass Details

Date: 17 June 2024
Orbit: 920 x 1201 km, 28.2° (Epoch: 17 July)

Event Time Altitude Azimuth Distance (km) Brightness Sun altitude
Rises 14:10:25 0° 236° (WSW) 3,939 7.6 22.4°
Reaches altitude 10° 14:14:22 10° 217° (SW) 3,030 7.2 23.0°
Maximum altitude 14:18:40 16° 181° (S) 2,629 7.3 23.7°
Drops below altitude 10° 14:23:04 10° 146° (SSE) 3,107 8.0 24.5°
Sets 14:27:12 0° 127° (SE) 4,088 8.9 25.1°
